[[{"header":{"parameterUnit":"m.s-1","parameterCategory":1,"la1":30.2992,"la2":30.254,"lo1":-89.0895,"lo2":-89.0443,"dy":0.0025,"dx":0.0025,"nx":19,"ny":19,"refTime":"2026-03-29T09:00:00:Z","depth":0,"parameterNumber":2,"parameterNumberName":"U-component_of_WINDS"},"data":[0,0,0,-6.7997,-6.7999,-6.8064,-6.8064,-6.8191,-6.8192,0,0,0,0,0,0,0,0,0,0,0,-6.8006,-6.8008,-6.7997,-6.7999,-6.8064,-6.8064,-6.819,-6.8192,0,0,0,0,0,0,0,0,0,0,0,-6.8005,-6.8007,-6.801,-6.8,-6.8064,-6.8064,-6.819,-6.8125,0,0,0,0,0,0,0,0,0,0,-6.8055,-6.8091,-6.8007,-6.801,-6.8,-6.8064,-6.8064,-6.8121,-6.8129,-6.8181,0,-6.8235,0,-6.8216,-6.8204,-6.8204,0,0,0,-6.7978,-6.8084,-6.8077,-6.801,-6.8001,-6.8064,-6.8029,-6.8125,-6.8134,-6.8192,-6.8236,-6.824,-6.8218,-6.8205,-6.8206,-6.8574,-6.8576,0,0,-6.7975,-6.8032,-6.8071,-6.8084,-6.8078,-6.8027,-6.8031,-6.813,-6.8182,-6.8236,-6.8242,-6.822,-6.8206,-6.8207,-6.8571,-6.8574,0,0,0,-6.7979,-6.8031,-6.8019,-6.808,-6.8088,-6.8029,-6.8034,-6.8178,-6.8169,-6.8243,-6.8222,-6.8207,-6.8209,-6.8568,-6.8572,-6.876,0,0,0,-6.7976,-6.8033,-6.8019,-6.8055,-6.8087,-6.8134,-6.808,-6.8162,-6.8172,-6.8221,-6.8207,-6.8211,-6.8565,-6.857,-6.8748,-6.8839,0,0,0,-6.7992,-6.8034,-6.8054,-6.8058,-6.8088,-6.8131,-6.8127,-6.8163,-6.816,-6.8204,-6.8211,-6.8563,-6.8569,-6.8738,-6.8821,-6.895,0,0,0,-6.8026,-6.8221,-6.8058,-6.8266,-6.8088,-6.8248,-6.8126,-6.8242,-6.8303,-6.8208,-6.8565,-6.8572,-6.8735,-6.8811,-6.894,-6.9068,-6.9127,0,0,-6.8303,-6.8256,-6.8374,-6.823,-6.8434,-6.8233,-6.8464,-6.8465,-6.8417,-6.8524,-6.8532,-6.8752,-6.882,-6.8948,-6.9445,-6.9493,0,0,0,-6.8481,-6.8567,-6.8608,-6.8669,-6.8675,-6.8687,-6.8647,-6.8647,-6.8735,-6.8484,-6.8833,-6.8872,-6.8945,-6.9003,-6.9044,-6.9101,-6.8602,-6.8601,-6.8601,-6.8954,-6.8882,-6.9072,-6.9008,-6.9069,-6.9026,-6.9068,-6.906,-6.897,-6.9055,-6.9085,-6.9395,-6.9466,-6.9496,-6.9557,-6.9149,-6.915,-6.915,-6.9151,-6.935,-6.9459,-6.9335,-6.9475,-6.9398,-6.9514,-6.9481,-6.9413,-6.9509,-6.9366,-6.9427,-6.9274,-6.955,-6.96,-6.9164,-6.9162,-6.916,-6.9159,-6.9158,-6.9649,-6.9688,-6.9687,-6.9766,-6.9836,-6.9765,-6.9863,-6.979,-6.9722,-6.9782,-6.9804,-6.9801,-6.9786,-6.9799,-6.98,-6.9801,-6.9802,-6.9802,-6.9803,-6.9959,-6.9951,-7.0042,-7.0066,-7.0094,-7.0123,-7.0083,-7.0109,-7.0119,-7.0058,-7.0058,-6.9959,-6.9592,-6.95,-6.9819,-6.9817,-6.9814,-6.9813,-6.9812,-7.0382,-7.0275,-7.0417,-7.0446,-7.0467,-7.054,-7.0447,-7.0507,-7.0518,-7.0569,-7.0457,-7.0199,-7.0145,-7.0112,-7.0035,-7.0474,-7.0474,-7.0474,-7.0474,-7.0632,-7.0599,-7.0726,-7.0778,-7.082,-7.0749,-7.0911,-7.0882,-7.0835,-7.0838,-7.0764,-7.0657,-7.0627,-7.059,-7.0547,-7.0473,-7.1014,-7.1015,-7.1015,-7.0887,-7.0854,-7.1006,-7.0959,-7.097,-7.0981,-7.113,-7.1193,-7.1118,-7.1036,-7.0837,-7.0815,-7.064,-7.0588,-7.0498,-7.0432,-7.0296,0,0]},{"header":{"parameterUnit":"m.s-1","parameterCategory":1,"la1":30.2992,"la2":30.254,"lo1":-89.0895,"lo2":-89.0443,"dy":0.0025,"dx":0.0025,"nx":19,"ny":19,"refTime":"2026-03-29T09:00:00:Z","depth":0,"parameterNumber":3,"parameterNumberName":"V-component_of_WINDS"},"data":[0,0,0,0.9154,0.9153,0.9128,0.9128,0.9111,0.9111,0,0,0,0,0,0,0,0,0,0,0,0.917,0.9171,0.9154,0.9153,0.9128,0.9128,0.9111,0.9111,0,0,0,0,0,0,0,0,0,0,0,0.917,0.9171,0.9171,0.9153,0.9128,0.9128,0.9111,0.9124,0,0,0,0,0,0,0,0,0,0,0.9146,0.9171,0.9171,0.9171,0.9153,0.9128,0.9128,0.9125,0.9123,0.9129,0,0.9136,0,0.9124,0.9111,0.9111,0,0,0,0.9146,0.9172,0.9157,0.9171,0.9153,0.9128,0.9137,0.9124,0.9122,0.9127,0.9136,0.9135,0.9123,0.9111,0.911,0.917,0.917,0,0,0.9147,0.917,0.9158,0.9157,0.9162,0.9138,0.9137,0.9123,0.9133,0.9136,0.9134,0.9123,0.911,0.911,0.9169,0.917,0,0,0,0.9156,0.9172,0.9157,0.9158,0.9152,0.9138,0.9136,0.9134,0.9127,0.9134,0.9123,0.911,0.911,0.9168,0.9169,0.9224,0,0,0,0.9157,0.9177,0.9158,0.9172,0.9153,0.9143,0.9148,0.9128,0.9126,0.9123,0.911,0.911,0.9167,0.9169,0.9221,0.9245,0,0,0,0.9169,0.9178,0.9178,0.9173,0.9163,0.9142,0.9135,0.9127,0.912,0.9111,0.911,0.9167,0.9169,0.9218,0.9241,0.9269,0,0,0,0.9188,0.9225,0.9179,0.9217,0.9164,0.9177,0.9134,0.9143,0.9141,0.911,0.9168,0.9169,0.9217,0.9238,0.9266,0.9296,0.9311,0,0,0.9248,0.9233,0.9253,0.9212,0.9239,0.9179,0.9214,0.919,0.9167,0.917,0.9171,0.9222,0.924,0.9268,0.9387,0.9399,0,0,0,0.928,0.9295,0.9297,0.9298,0.9283,0.9271,0.924,0.9231,0.9233,0.9174,0.9239,0.9249,0.9264,0.9278,0.9288,0.93,0.9176,0.9176,0.9176,0.9396,0.9368,0.94,0.9369,0.937,0.9339,0.9338,0.9322,0.9289,0.9306,0.9306,0.9382,0.9399,0.9406,0.9419,0.932,0.932,0.932,0.932,0.9481,0.9498,0.9459,0.9475,0.9445,0.9458,0.9431,0.9409,0.9417,0.9379,0.9391,0.9351,0.9421,0.943,0.9324,0.9324,0.9323,0.9323,0.9322,0.9554,0.9557,0.9548,0.9549,0.9553,0.952,0.9532,0.9503,0.9475,0.9487,0.9486,0.9485,0.948,0.9489,0.9489,0.9489,0.949,0.949,0.949,0.9633,0.9621,0.9634,0.9623,0.9622,0.9617,0.9589,0.9586,0.9576,0.9554,0.9554,0.9522,0.9433,0.9412,0.9494,0.9493,0.9493,0.9492,0.9492,0.9728,0.9703,0.9724,0.9723,0.9709,0.9716,0.9681,0.968,0.9673,0.968,0.9646,0.9586,0.9568,0.9559,0.9541,0.9652,0.9652,0.9652,0.9652,0.979,0.9779,0.9795,0.9796,0.9793,0.9765,0.979,0.977,0.9745,0.974,0.972,0.9694,0.9687,0.9673,0.9662,0.9645,0.9779,0.9779,0.978,0.9847,0.9836,0.9862,0.9839,0.9828,0.9818,0.9842,0.9845,0.9811,0.9784,0.9735,0.973,0.9687,0.9675,0.9645,0.9629,0.9597,0,0]}]]